| time (UTC) | temp F | wind direction | speed knots | gust knots | rain 1hr in | rain 24hr in | rain mn in | humidity % | barometer mb |
| 20260508152025 | 34 | 325 | 0.0 | 0.0 | 0.00 | 0.06 | 0.00 | 92 | 1010.4 |
| 20260508151524 | 34 | 325 | 0.0 | 0.0 | 0.00 | 0.06 | 0.00 | 93 | 1010.3 |
| 20260508151028 | 33 | 325 | 0.0 | 0.9 | 0.00 | 0.06 | 0.00 | 93 | 1010.3 |
| 20260508150522 | 33 | 325 | 0.0 | 1.7 | 0.00 | 0.06 | 0.00 | 94 | 1010.7 |
| 20260508150022 | 33 | 325 | 0.9 | 2.6 | 0.00 | 0.06 | 0.00 | 94 | 1010.6 |
| 20260508145522 | 32 | 324 | 0.0 | 2.6 | 0.00 | 0.06 | 0.00 | 94 | 1010.6 |
| 20260508145022 | 32 | 79 | 0.0 | 0.9 | 0.00 | 0.06 | 0.00 | 94 | 1010.7 |
| 20260508144523 | 32 | 5 | 0.0 | 0.9 | 0.00 | 0.06 | 0.00 | 95 | 1010.6 |
| 20260508144021 | 32 | 5 | 0.0 | 1.7 | 0.00 | 0.06 | 0.00 | 94 | 1010.7 |
| 20260508143520 | 32 | 5 | 0.0 | 1.7 | 0.00 | 0.06 | 0.00 | 94 | 1010.8 |
| 20260508143018 | 31 | 19 | 0.0 | 0.0 | 0.00 | 0.06 | 0.00 | 94 | 1010.9 |
| 20260508142518 | 31 | 19 | 0.0 | 0.0 | 0.00 | 0.06 | 0.00 | 94 | 1010.9 |
| 20260508142016 | 31 | 19 | 0.0 | 0.0 | 0.00 | 0.06 | 0.00 | 94 | 1011.0 |
| 20260508141516 | 31 | 19 | 0.0 | 0.0 | 0.00 | 0.06 | 0.00 | 94 | 1011.0 |
| 20260508141015 | 31 | 19 | 0.0 | 0.0 | 0.00 | 0.06 | 0.00 | 94 | 1011.2 |
| 20260508140514 | 31 | 19 | 0.0 | 0.0 | 0.00 | 0.06 | 0.00 | 94 | 1011.1 |
| 20260508140014 | 31 | 19 | 0.0 | 0.9 | 0.00 | 0.06 | 0.00 | 94 | 1011.1 |
| 20260508135513 | 31 | 19 | 0.0 | 0.9 | 0.00 | 0.06 | 0.00 | 94 | 1011.3 |
| 20260508135012 | 31 | 19 | 0.0 | 0.0 | 0.00 | 0.06 | 0.00 | 94 | 1011.4 |
| 20260508134515 | 31 | 19 | 0.0 | 0.0 | 0.00 | 0.06 | 0.00 | 94 | 1011.6 |
| 20260508134010 | 31 | 19 | 0.0 | 0.0 | 0.00 | 0.06 | 0.00 | 94 | 1011.6 |
| 20260508133510 | 31 | 19 | 0.0 | 0.0 | 0.00 | 0.06 | 0.00 | 94 | 1011.4 |
| 20260508133008 | 31 | 19 | 0.0 | 0.0 | 0.00 | 0.06 | 0.00 | 94 | 1011.5 |
| 20260508132507 | 31 | 19 | 0.0 | 0.0 | 0.00 | 0.06 | 0.00 | 94 | 1011.6 |
| 20260508132008 | 31 | 19 | 0.0 | 0.0 | 0.00 | 0.06 | 0.00 | 94 | 1011.5 |
| 20260508131505 | 31 | 19 | 0.0 | 0.0 | 0.00 | 0.06 | 0.00 | 94 | 1011.6 |
| 20260508131104 | 31 | 19 | 0.0 | 0.0 | 0.00 | 0.06 | 0.00 | 94 | 1011.7 |
| 20260508130503 | 31 | 19 | 0.0 | 0.0 | 0.00 | 0.06 | 0.00 | 94 | 1011.7 |
| 20260508125501 | 32 | 19 | 0.0 | 0.0 | 0.00 | 0.06 | 0.00 | 94 | 1011.8 |
| 20260508125101 | 32 | 19 | 0.0 | 0.0 | 0.00 | 0.06 | 0.00 | 94 | 1012.0 |
| 20260508124600 | 32 | 19 | 0.0 | 0.0 | 0.00 | 0.06 | 0.00 | 94 | 1012.0 |
| 20260508124100 | 32 | 19 | 0.0 | 0.0 | 0.00 | 0.06 | 0.00 | 94 | 1012.0 |
| 20260508123559 | 32 | 19 | 0.0 | 0.9 | 0.00 | 0.06 | 0.00 | 94 | 1012.0 |
| 20260508123059 | 32 | 19 | 0.0 | 0.9 | 0.00 | 0.06 | 0.00 | 94 | 1011.9 |
| 20260508122602 | 32 | 19 | 0.0 | 0.0 | 0.00 | 0.06 | 0.00 | 94 | 1012.1 |
| 20260508122058 | 32 | 19 | 0.0 | 0.0 | 0.00 | 0.06 | 0.00 | 94 | 1012.1 |
| 20260508121559 | 32 | 19 | 0.0 | 0.9 | 0.00 | 0.06 | 0.00 | 94 | 1012.1 |
| 20260508121058 | 32 | 19 | 0.0 | 0.9 | 0.00 | 0.06 | 0.00 | 94 | 1012.2 |
| 20260508120557 | 32 | 19 | 0.0 | 0.0 | 0.00 | 0.06 | 0.00 | 94 | 1012.2 |
| 20260508120112 | 32 | 19 | 0.0 | 0.0 | 0.00 | 0.06 | 0.00 | 94 | 1012.2 |
| 20260508115600 | 32 | 19 | 0.0 | 0.0 | 0.00 | 0.06 | 0.00 | 94 | 1012.3 |
| 20260508115055 | 32 | 19 | 0.0 | 0.0 | 0.00 | 0.06 | 0.00 | 94 | 1012.3 |
| 20260508114602 | 32 | 19 | 0.0 | 0.0 | 0.00 | 0.06 | 0.00 | 94 | 1012.4 |
| 20260508114055 | 32 | 19 | 0.0 | 0.0 | 0.00 | 0.06 | 0.00 | 94 | 1012.4 |
| 20260508113555 | 32 | 19 | 0.0 | 0.0 | 0.00 | 0.06 | 0.00 | 94 | 1012.5 |
| 20260508113101 | 32 | 19 | 0.0 | 0.0 | 0.00 | 0.06 | 0.00 | 94 | 1012.5 |
| 20260508112552 | 32 | 19 | 0.0 | 0.0 | 0.00 | 0.06 | 0.00 | 94 | 1012.7 |
| 20260508112052 | 32 | 19 | 0.0 | 0.0 | 0.00 | 0.06 | 0.00 | 94 | 1012.7 |
| 20260508111551 | 32 | 19 | 0.0 | 0.0 | 0.00 | 0.06 | 0.00 | 94 | 1012.8 |
| 20260508111051 | 32 | 19 | 0.0 | 0.0 | 0.00 | 0.06 | 0.00 | 94 | 1012.9 |
| 20260508110551 | 32 | 19 | 0.0 | 0.0 | 0.00 | 0.06 | 0.00 | 94 | 1013.0 |
| 20260508110058 | 32 | 19 | 0.0 | 1.7 | 0.00 | 0.06 | 0.00 | 94 | 1013.0 |
| 20260508105551 | 33 | 19 | 0.0 | 1.7 | 0.00 | 0.06 | 0.00 | 94 | 1012.9 |
| 20260508105047 | 33 | 19 | 0.0 | 1.7 | 0.00 | 0.06 | 0.00 | 94 | 1012.9 |
| 20260508104547 | 33 | 19 | 0.0 | 0.0 | 0.00 | 0.06 | 0.00 | 94 | 1013.0 |
| 20260508104047 | 33 | 19 | 0.0 | 0.0 | 0.00 | 0.06 | 0.00 | 94 | 1013.0 |
| 20260508103545 | 33 | 19 | 0.0 | 0.0 | 0.00 | 0.06 | 0.00 | 94 | 1013.1 |
| 20260508103049 | 33 | 19 | 0.0 | 0.0 | 0.00 | 0.06 | 0.00 | 94 | 1013.1 |
| 20260508102544 | 33 | 19 | 0.0 | 0.0 | 0.00 | 0.06 | 0.00 | 94 | 1013.1 |
| 20260508102045 | 33 | 19 | 0.0 | 0.0 | 0.00 | 0.06 | 0.00 | 94 | 1013.2 |
| 20260508101544 | 33 | 19 | 0.0 | 0.0 | 0.00 | 0.06 | 0.00 | 94 | 1013.2 |
| 20260508101043 | 33 | 19 | 0.0 | 1.7 | 0.00 | 0.06 | 0.00 | 94 | 1013.3 |
| 20260508100545 | 33 | 19 | 0.0 | 1.7 | 0.00 | 0.06 | 0.00 | 94 | 1013.3 |
| 20260508100058 | 33 | 19 | 0.0 | 0.0 | 0.00 | 0.06 | 0.00 | 94 | 1013.3 |
| 20260508095541 | 33 | 19 | 0.0 | 0.0 | 0.00 | 0.06 | 0.00 | 94 | 1013.4 |
| 20260508095041 | 34 | 19 | 0.0 | 0.0 | 0.00 | 0.06 | 0.00 | 94 | 1013.4 |
| 20260508094543 | 34 | 19 | 0.0 | 0.0 | 0.00 | 0.06 | 0.00 | 94 | 1013.5 |
| 20260508094039 | 34 | 19 | 0.0 | 0.0 | 0.00 | 0.06 | 0.00 | 94 | 1013.5 |
| 20260508093538 | 34 | 19 | 0.0 | 0.0 | 0.00 | 0.06 | 0.00 | 94 | 1013.6 |
| 20260508093040 | 34 | 19 | 0.0 | 0.0 | 0.00 | 0.06 | 0.00 | 94 | 1013.6 |
| 20260508092538 | 34 | 19 | 0.0 | 0.0 | 0.00 | 0.06 | 0.00 | 94 | 1013.6 |
| 20260508092036 | 34 | 38 | 0.0 | 0.0 | 0.00 | 0.06 | 0.00 | 94 | 1013.7 |
| 20260508091546 | 34 | 38 | 0.0 | 0.0 | 0.00 | 0.06 | 0.00 | 94 | 1013.7 |
| 20260508091036 | 34 | 38 | 0.0 | 0.0 | 0.00 | 0.06 | 0.00 | 94 | 1013.8 |
| 20260508090534 | 34 | 38 | 0.0 | 0.0 | 0.00 | 0.06 | 0.00 | 93 | 1013.9 |
| 20260508090041 | 34 | 38 | 0.0 | 0.0 | 0.00 | 0.06 | 0.00 | 94 | 1013.9 |
| 20260508085534 | 34 | 38 | 0.0 | 0.0 | 0.00 | 0.06 | 0.00 | 94 | 1014.0 |
| 20260508085034 | 34 | 38 | 0.0 | 0.0 | 0.00 | 0.06 | 0.00 | 93 | 1013.9 |
| 20260508084534 | 34 | 38 | 0.0 | 0.0 | 0.00 | 0.06 | 0.00 | 93 | 1013.9 |
| 20260508084034 | 34 | 39 | 0.0 | 0.0 | 0.00 | 0.06 | 0.00 | 93 | 1013.9 |
| 20260508083532 | 34 | 38 | 0.0 | 0.0 | 0.00 | 0.06 | 0.00 | 93 | 1013.8 |
| 20260508083031 | 34 | 38 | 0.0 | 0.0 | 0.00 | 0.06 | 0.00 | 93 | 1013.9 |
| 20260508082531 | 35 | 38 | 0.0 | 0.0 | 0.00 | 0.06 | 0.00 | 93 | 1013.9 |
| 20260508082030 | 35 | 38 | 0.0 | 0.0 | 0.00 | 0.06 | 0.00 | 93 | 1013.9 |
| 20260508081529 | 35 | 38 | 0.0 | 0.0 | 0.00 | 0.06 | 0.00 | 93 | 1013.9 |
| 20260508081031 | 35 | 38 | 0.0 | 0.0 | 0.00 | 0.06 | 0.00 | 92 | 1013.9 |
| 20260508080527 | 35 | 38 | 0.0 | 0.0 | 0.00 | 0.06 | 0.00 | 93 | 1014.0 |
| 20260508080031 | 35 | 38 | 0.0 | 0.0 | 0.00 | 0.06 | 0.00 | 93 | 1014.0 |
| 20260508075526 | 35 | 38 | 0.0 | 0.0 | 0.00 | 0.06 | 0.06 | 92 | 1014.0 |
| 20260508075025 | 35 | 38 | 0.0 | 0.0 | 0.00 | 0.06 | 0.06 | 92 | 1014.1 |
| 20260508074524 | 36 | 38 | 0.0 | 0.0 | 0.00 | 0.06 | 0.06 | 92 | 1014.1 |
| 20260508074024 | 36 | 38 | 0.0 | 0.0 | 0.00 | 0.06 | 0.06 | 92 | 1014.2 |
| 20260508073523 | 36 | 38 | 0.0 | 0.0 | 0.00 | 0.06 | 0.06 | 92 | 1014.0 |
| 20260508073024 | 36 | 38 | 0.0 | 0.0 | 0.00 | 0.06 | 0.06 | 92 | 1014.2 |
| 20260508072523 | 36 | 38 | 0.0 | 0.0 | 0.00 | 0.06 | 0.06 | 92 | 1014.2 |
| 20260508072026 | 36 | 38 | 0.0 | 0.0 | 0.00 | 0.06 | 0.06 | 92 | 1014.3 |
| 20260508071529 | 36 | 38 | 0.0 | 0.0 | 0.00 | 0.06 | 0.06 | 92 | 1014.2 |
| 20260508071022 | 36 | 38 | 0.0 | 0.9 | 0.00 | 0.06 | 0.06 | 92 | 1014.2 |
| 20260508070522 | 36 | 38 | 0.0 | 0.9 | 0.00 | 0.06 | 0.06 | 91 | 1014.2 |
| 20260508070022 | 37 | 38 | 0.0 | 0.0 | 0.00 | 0.06 | 0.06 | 91 | 1014.3 |
| 20260508065521 | 37 | 38 | 0.0 | 1.7 | 0.00 | 0.06 | 0.06 | 91 | 1014.3 |
| 20260508065021 | 37 | 38 | 0.0 | 1.7 | 0.00 | 0.06 | 0.06 | 91 | 1014.2 |
| 20260508064623 | 37 | 39 | 0.0 | 0.0 | 0.00 | 0.06 | 0.06 | 91 | 1014.3 |
| 20260508064022 | 37 | 39 | 0.0 | 0.9 | 0.00 | 0.06 | 0.06 | 91 | 1014.2 |
| 20260508063522 | 37 | 38 | 0.0 | 1.7 | 0.00 | 0.06 | 0.06 | 90 | 1014.2 |
| 20260508063022 | 38 | 39 | 0.0 | 0.9 | 0.00 | 0.06 | 0.06 | 90 | 1014.2 |
| 20260508062520 | 38 | 38 | 0.0 | 0.9 | 0.00 | 0.06 | 0.06 | 90 | 1014.2 |
| 20260508062019 | 38 | 38 | 0.0 | 0.9 | 0.00 | 0.06 | 0.06 | 90 | 1014.3 |
| 20260508061520 | 38 | 38 | 0.0 | 0.9 | 0.00 | 0.06 | 0.06 | 90 | 1014.3 |
| 20260508061020 | 38 | 38 | 0.0 | 0.9 | 0.00 | 0.06 | 0.06 | 89 | 1014.3 |
| 20260508060518 | 38 | 38 | 0.0 | 0.9 | 0.00 | 0.06 | 0.06 | 89 | 1014.3 |
| 20260508060025 | 38 | 38 | 0.0 | 0.9 | 0.00 | 0.06 | 0.06 | 89 | 1014.4 |
| 20260508055518 | 38 | 38 | 0.0 | 0.9 | 0.00 | 0.06 | 0.06 | 89 | 1014.5 |
| 20260508055018 | 38 | 38 | 0.0 | 1.7 | 0.00 | 0.06 | 0.06 | 88 | 1014.5 |
| 20260508054549 | 38 | 38 | 0.0 | 1.7 | 0.00 | 0.06 | 0.06 | 89 | 1014.4 |
| 20260508054018 | 39 | 39 | 0.0 | 1.7 | 0.00 | 0.06 | 0.06 | 89 | 1014.3 |
| 20260508053518 | 39 | 39 | 0.9 | 4.3 | 0.00 | 0.06 | 0.06 | 89 | 1014.3 |
| 20260508053018 | 39 | 39 | 0.9 | 4.3 | 0.00 | 0.06 | 0.06 | 88 | 1014.4 |
| 20260508052518 | 39 | 11 | 1.7 | 3.5 | 0.00 | 0.06 | 0.06 | 89 | 1014.3 |
| 20260508052018 | 39 | 42 | 0.9 | 3.5 | 0.00 | 0.06 | 0.06 | 89 | 1014.6 |
| 20260508051518 | 39 | 68 | 1.7 | 3.5 | 0.00 | 0.06 | 0.06 | 90 | 1014.5 |
| 20260508051018 | 39 | 92 | 0.9 | 3.5 | 0.00 | 0.06 | 0.06 | 90 | 1014.4 |
| 20260508050517 | 39 | 24 | 0.9 | 2.6 | 0.00 | 0.06 | 0.06 | 90 | 1014.3 |
| 20260508050021 | 39 | 351 | 0.9 | 2.6 | 0.00 | 0.06 | 0.06 | 89 | 1014.3 |
| 20260508045516 | 39 | 351 | 0.9 | 2.6 | 0.00 | 0.06 | 0.06 | 89 | 1014.2 |
| 20260508045016 | 39 | 351 | 0.9 | 2.6 | 0.00 | 0.06 | 0.06 | 89 | 1014.4 |
| 20260508044516 | 39 | 355 | 0.9 | 2.6 | 0.00 | 0.06 | 0.06 | 89 | 1014.4 |
| 20260508044015 | 39 | 346 | 0.9 | 7.0 | 0.00 | 0.06 | 0.06 | 88 | 1014.5 |
| 20260508043515 | 39 | 338 | 1.7 | 7.8 | 0.00 | 0.06 | 0.06 | 88 | 1014.5 |
| 20260508043016 | 39 | 351 | 2.6 | 7.8 | 0.01 | 0.06 | 0.06 | 88 | 1014.3 |
| 20260508042517 | 39 | 327 | 2.6 | 7.0 | 0.01 | 0.06 | 0.06 | 89 | 1014.5 |
| 20260508042015 | 39 | 337 | 1.7 | 7.0 | 0.01 | 0.06 | 0.06 | 88 | 1014.6 |
| 20260508041515 | 39 | 308 | 3.5 | 7.8 | 0.02 | 0.06 | 0.06 | 89 | 1014.6 |
| 20260508041015 | 39 | 337 | 3.5 | 8.7 | 0.02 | 0.06 | 0.06 | 89 | 1014.5 |
| 20260508040514 | 39 | 300 | 4.3 | 8.7 | 0.03 | 0.06 | 0.06 | 89 | 1014.6 |
| 20260508040014 | 39 | 321 | 4.3 | 8.7 | 0.04 | 0.06 | 0.06 | 90 | 1014.7 |
| 20260508035514 | 38 | 310 | 4.3 | 8.7 | 0.05 | 0.06 | 0.06 | 91 | 1014.8 |
| 20260508035014 | 38 | 339 | 4.3 | 9.6 | 0.06 | 0.06 | 0.06 | 90 | 1014.8 |
| 20260508034513 | 38 | 340 | 5.2 | 10.4 | 0.06 | 0.06 | 0.06 | 90 | 1014.9 |
| 20260508034016 | 38 | 333 | 3.5 | 10.4 | 0.06 | 0.06 | 0.06 | 90 | 1014.9 |
| 20260508033513 | 37 | 307 | 2.6 | 8.7 | 0.06 | 0.06 | 0.06 | 90 | 1015.0 |
| 20260508033020 | 37 | 329 | 3.5 | 8.7 | 0.05 | 0.05 | 0.05 | 90 | 1015.2 |
| 20260508032514 | 38 | 290 | 2.6 | 7.0 | 0.05 | 0.05 | 0.05 | 89 | 1015.4 |
| 20260508032012 | 38 | 314 | 2.6 | 7.8 | 0.05 | 0.05 | 0.05 | 89 | 1015.6 |
| 20260508031514 | 39 | 306 | 3.5 | 7.8 | 0.04 | 0.04 | 0.04 | 88 | 1015.9 |
| 20260508031012 | 39 | 259 | 0.9 | 3.5 | 0.03 | 0.03 | 0.03 | 87 | 1016.1 |
| 20260508030513 | 40 | 235 | 0.9 | 6.1 | 0.03 | 0.03 | 0.03 | 86 | 1016.2 |
| 20260508030011 | 40 | 214 | 0.9 | 8.7 | 0.02 | 0.02 | 0.02 | 84 | 1016.2 |
| 20260508025509 | 41 | 200 | 1.7 | 7.0 | 0.01 | 0.01 | 0.01 | 81 | 1016.2 |
| 20260508025009 | 43 | 280 | 2.6 | 9.6 | 0.00 | 0.00 | 0.00 | 76 | 1016.1 |
| 20260508024509 | 43 | 143 | 4.3 | 9.6 | 0.00 | 0.00 | 0.00 | 68 | 1015.8 |
| 20260508024009 | 44 | 177 | 1.7 | 11.3 | 0.00 | 0.00 | 0.00 | 64 | 1015.5 |
| 20260508023510 | 46 | 233 | 4.3 | 11.3 | 0.00 | 0.00 | 0.00 | 62 | 1015.2 |
| 20260508023008 | 47 | 301 | 1.7 | 6.1 | 0.00 | 0.00 | 0.00 | 59 | 1015.1 |
| 20260508022508 | 47 | 173 | 1.7 | 5.2 | 0.00 | 0.00 | 0.00 | 59 | 1014.9 |
| 20260508022008 | 47 | 104 | 0.0 | 5.2 | 0.00 | 0.00 | 0.00 | 59 | 1014.7 |
| 20260508021509 | 47 | 22 | 0.0 | 2.6 | 0.00 | 0.00 | 0.00 | 59 | 1014.6 |
| 20260508021009 | 47 | 15 | 0.9 | 3.5 | 0.00 | 0.00 | 0.00 | 58 | 1014.6 |
| 20260508020507 | 48 | 19 | 0.9 | 8.7 | 0.00 | 0.00 | 0.00 | 58 | 1014.5 |
| 20260508020007 | 48 | 95 | 2.6 | 8.7 | 0.00 | 0.00 | 0.00 | 58 | 1014.5 |
| 20260508015507 | 48 | 105 | 1.7 | 8.7 | 0.00 | 0.00 | 0.00 | 56 | 1014.6 |
| 20260508015006 | 49 | 98 | 2.6 | 5.2 | 0.00 | 0.00 | 0.00 | 52 | 1014.5 |
| 20260508014506 | 49 | 122 | 0.0 | 1.7 | 0.00 | 0.00 | 0.00 | 51 | 1014.6 |
| 20260508014007 | 49 | 122 | 0.0 | 4.3 | 0.00 | 0.00 | 0.00 | 50 | 1014.6 |
| 20260508013509 | 49 | 298 | 0.9 | 6.1 | 0.00 | 0.00 | 0.00 | 51 | 1014.5 |
| 20260508013006 | 49 | 147 | 2.6 | 6.1 | 0.00 | 0.00 | 0.00 | 52 | 1014.5 |
| 20260508012505 | 49 | 59 | 0.9 | 7.8 | 0.00 | 0.00 | 0.00 | 52 | 1014.5 |
| 20260508012005 | 49 | 20 | 1.7 | 7.8 | 0.00 | 0.00 | 0.00 | 51 | 1014.6 |
| 20260508011504 | 50 | 43 | 1.7 | 7.8 | 0.00 | 0.00 | 0.00 | 52 | 1014.5 |
| 20260508011004 | 49 | 355 | 1.7 | 7.8 | 0.00 | 0.00 | 0.00 | 51 | 1014.5 |
| 20260508010503 | 49 | 307 | 3.5 | 4.3 | 0.00 | 0.00 | 0.00 | 48 | 1014.6 |
| 20260508010007 | 49 | 28 | 0.0 | 5.2 | 0.00 | 0.00 | 0.00 | 51 | 1014.6 |
| 20260508005502 | 49 | 299 | 2.6 | 5.2 | 0.00 | 0.00 | 0.00 | 49 | 1014.6 |
| 20260508005002 | 49 | 321 | 2.6 | 7.0 | 0.00 | 0.00 | 0.00 | 48 | 1014.7 |
| 20260508004502 | 50 | 126 | 3.5 | 7.0 | 0.00 | 0.00 | 0.00 | 49 | 1014.8 |
| 20260508004101 | 50 | 67 | 1.7 | 4.3 | 0.00 | 0.00 | 0.00 | 48 | 1014.9 |
| 20260508003605 | 50 | 355 | 0.9 | 4.3 | 0.00 | 0.00 | 0.00 | 51 | 1014.8 |
| 20260508003059 | 50 | 82 | 0.0 | 4.3 | 0.00 | 0.00 | 0.00 | 51 | 1014.9 |
| 20260508002558 | 49 | 286 | 1.7 | 4.3 | 0.00 | 0.00 | 0.00 | 51 | 1015.0 |
| 20260508002056 | 49 | 188 | 0.9 | 3.5 | 0.00 | 0.00 | 0.00 | 52 | 1015.2 |
| 20260508001600 | 48 | 219 | 1.7 | 4.3 | 0.00 | 0.00 | 0.00 | 52 | 1015.3 |
| 20260508001054 | 48 | 311 | 0.9 | 4.3 | 0.00 | 0.00 | 0.00 | 54 | 1015.4 |
| 20260508000554 | 47 | 305 | 1.7 | 4.3 | 0.00 | 0.00 | 0.00 | 55 | 1015.5 |
| 20260508000052 | 47 | 335 | 2.6 | 4.3 | 0.00 | 0.00 | 0.00 | 53 | 1015.4 |
| 20260507235551 | 48 | 317 | 1.7 | 3.5 | 0.00 | 0.00 | 0.00 | 53 | 1015.5 |
| 20260507235052 | 48 | 299 | 0.9 | 2.6 | 0.00 | 0.00 | 0.00 | 56 | 1015.6 |
| 20260507234551 | 48 | 198 | 0.0 | 1.7 | 0.00 | 0.00 | 0.00 | 55 | 1015.6 |
| 20260507234050 | 47 | 199 | 0.9 | 1.7 | 0.00 | 0.00 | 0.00 | 54 | 1015.7 |
| 20260507233550 | 47 | 198 | 0.0 | 3.5 | 0.00 | 0.00 | 0.00 | 53 | 1015.7 |
| 20260507233051 | 47 | 198 | 0.9 | 3.5 | 0.00 | 0.00 | 0.00 | 53 | 1015.7 |
| 20260507232550 | 48 | 198 | 1.7 | 3.5 | 0.00 | 0.00 | 0.00 | 54 | 1015.7 |
| 20260507232049 | 48 | 236 | 1.7 | 3.5 | 0.00 | 0.00 | 0.00 | 53 | 1015.8 |
| 20260507231551 | 48 | 289 | 0.0 | 2.6 | 0.00 | 0.00 | 0.00 | 53 | 1015.7 |
| 20260507231054 | 48 | 306 | 1.7 | 2.6 | 0.00 | 0.00 | 0.00 | 55 | 1015.8 |
| 20260507230550 | 47 | 360 | 0.9 | 3.5 | 0.00 | 0.00 | 0.00 | 55 | 1015.9 |
| 20260507230048 | 47 | 283 | 0.9 | 4.3 | 0.00 | 0.00 | 0.00 | 54 | 1016.0 |
| 20260507225548 | 47 | 69 | 1.7 | 4.3 | 0.00 | 0.00 | 0.00 | 55 | 1016.0 |
| 20260507225047 | 48 | 105 | 1.7 | 5.2 | 0.00 | 0.00 | 0.00 | 53 | 1015.9 |
| 20260507224548 | 47 | 92 | 2.6 | 5.2 | 0.00 | 0.00 | 0.00 | 55 | 1016.0 |
| 20260507224045 | 47 | 339 | 0.9 | 5.2 | 0.00 | 0.00 | 0.00 | 57 | 1016.0 |
| 20260507223546 | 47 | 322 | 1.7 | 6.1 | 0.00 | 0.00 | 0.00 | 56 | 1015.9 |
| 20260507223045 | 47 | 312 | 2.6 | 8.7 | 0.00 | 0.00 | 0.00 | 55 | 1016.0 |
| 20260507222546 | 47 | 103 | 0.9 | 7.0 | 0.00 | 0.00 | 0.00 | 54 | 1016.0 |
| 20260507222045 | 47 | 273 | 1.7 | 3.5 | 0.00 | 0.00 | 0.00 | 55 | 1016.0 |
| 20260507221545 | 47 | 285 | 1.7 | 3.5 | 0.00 | 0.00 | 0.00 | 55 | 1016.0 |
| 20260507221049 | 47 | 45 | 0.9 | 5.2 | 0.00 | 0.00 | 0.00 | 57 | 1016.2 |
| 20260507220544 | 47 | 25 | 2.6 | 5.2 | 0.00 | 0.00 | 0.00 | 55 | 1016.2 |
| 20260507220043 | 47 | 74 | 2.6 | 5.2 | 0.00 | 0.00 | 0.00 | 55 | 1016.2 |
| 20260507215544 | 47 | 56 | 1.7 | 7.0 | 0.00 | 0.00 | 0.00 | 56 | 1016.1 |
| 20260507215044 | 47 | 355 | 2.6 | 7.0 | 0.00 | 0.00 | 0.00 | 55 | 1016.2 |
| 20260507214548 | 47 | 50 | 0.9 | 6.1 | 0.00 | 0.00 | 0.00 | 56 | 1016.1 |
| 20260507214042 | 47 | 80 | 2.6 | 6.1 | 0.00 | 0.00 | 0.00 | 56 | 1016.2 |
| 20260507213542 | 47 | 89 | 2.6 | 5.2 | 0.00 | 0.00 | 0.00 | 56 | 1016.1 |
| 20260507213041 | 46 | 26 | 1.7 | 5.2 | 0.00 | 0.00 | 0.00 | 57 | 1016.2 |
| 20260507212540 | 46 | 107 | 2.6 | 5.2 | 0.00 | 0.00 | 0.00 | 57 | 1016.2 |
| 20260507212040 | 46 | 5 | 0.9 | 4.3 | 0.00 | 0.00 | 0.00 | 57 | 1016.3 |
| 20260507211543 | 46 | 26 | 0.9 | 4.3 | 0.00 | 0.00 | 0.00 | 57 | 1016.3 |
| 20260507211038 | 46 | 11 | 1.7 | 4.3 | 0.00 | 0.00 | 0.00 | 58 | 1016.3 |
| 20260507210538 | 46 | 324 | 1.7 | 4.3 | 0.00 | 0.00 | 0.00 | 57 | 1016.3 |
| 20260507210038 | 46 | 94 | 2.6 | 5.2 | 0.00 | 0.00 | 0.00 | 56 | 1016.3 |
| 20260507205536 | 46 | 92 | 0.0 | 5.2 | 0.00 | 0.00 | 0.00 | 58 | 1016.4 |
| 20260507205040 | 45 | 115 | 0.9 | 2.6 | 0.00 | 0.00 | 0.00 | 56 | 1016.4 |
| 20260507204538 | 45 | 117 | 0.9 | 4.3 | 0.00 | 0.00 | 0.00 | 56 | 1016.4 |
| 20260507204035 | 45 | 76 | 0.9 | 4.3 | 0.00 | 0.00 | 0.00 | 58 | 1016.4 |
| 20260507203535 | 45 | 32 | 0.9 | 2.6 | 0.00 | 0.00 | 0.00 | 58 | 1016.5 |
| 20260507203037 | 45 | 247 | 0.9 | 2.6 | 0.00 | 0.00 | 0.00 | 58 | 1016.4 |
| 20260507202535 | 45 | 297 | 0.9 | 2.6 | 0.00 | 0.00 | 0.00 | 58 | 1016.5 |
| 20260507202035 | 45 | 18 | 0.0 | 7.0 | 0.00 | 0.00 | 0.00 | 58 | 1016.5 |
| 20260507201535 | 45 | 5 | 0.9 | 7.0 | 0.00 | 0.00 | 0.00 | 59 | 1016.5 |
| 20260507201035 | 45 | 63 | 0.9 | 5.2 | 0.00 | 0.00 | 0.00 | 59 | 1016.5 |
| 20260507200535 | 45 | 21 | 2.6 | 6.1 | 0.00 | 0.00 | 0.00 | 58 | 1016.4 |
| 20260507200034 | 45 | 11 | 0.9 | 4.3 | 0.00 | 0.00 | 0.00 | 58 | 1016.3 |
| 20260507195533 | 45 | 63 | 0.9 | 5.2 | 0.00 | 0.00 | 0.00 | 59 | 1016.4 |
| 20260507195033 | 45 | 288 | 1.7 | 5.2 | 0.00 | 0.00 | 0.00 | 58 | 1016.4 |
| 20260507194534 | 44 | 78 | 0.9 | 5.2 | 0.00 | 0.00 | 0.00 | 62 | 1016.4 |
| 20260507194032 | 45 | 275 | 2.6 | 5.2 | 0.00 | 0.00 | 0.00 | 59 | 1016.5 |
| 20260507193534 | 45 | 22 | 1.7 | 5.2 | 0.00 | 0.00 | 0.00 | 61 | 1016.5 |
| 20260507193035 | 45 | 161 | 1.7 | 5.2 | 0.00 | 0.00 | 0.00 | 59 | 1016.6 |
| 20260507192531 | 44 | 5 | 0.9 | 6.1 | 0.00 | 0.00 | 0.00 | 60 | 1016.7 |
| 20260507192029 | 44 | 65 | 3.5 | 6.1 | 0.00 | 0.00 | 0.00 | 59 | 1016.7 |
| 20260507191529 | 44 | 92 | 1.7 | 4.3 | 0.00 | 0.00 | 0.00 | 61 | 1016.6 |
| 20260507191027 | 44 | 97 | 1.7 | 4.3 | 0.00 | 0.00 | 0.00 | 61 | 1016.8 |
| 20260507190526 | 44 | 88 | 1.7 | 3.5 | 0.00 | 0.00 | 0.00 | 64 | 1016.7 |
| 20260507190027 | 43 | 69 | 0.9 | 3.5 | 0.00 | 0.00 | 0.00 | 64 | 1016.7 |
| 20260507185525 | 43 | 32 | 0.9 | 2.6 | 0.00 | 0.00 | 0.00 | 63 | 1016.7 |
| 20260507185025 | 43 | 333 | 0.9 | 3.5 | 0.00 | 0.00 | 0.00 | 63 | 1016.7 |
| 20260507184526 | 43 | 310 | 1.7 | 3.5 | 0.00 | 0.00 | 0.00 | 62 | 1016.7 |
| 20260507184026 | 43 | 306 | 1.7 | 3.5 | 0.00 | 0.00 | 0.00 | 62 | 1016.9 |
| 20260507183529 | 43 | 40 | 1.7 | 4.3 | 0.00 | 0.00 | 0.00 | 62 | 1016.9 |
| 20260507183039 | 43 | 81 | 1.7 | 4.3 | 0.00 | 0.00 | 0.00 | 61 | 1016.9 |
| 20260507182526 | 43 | 88 | 0.9 | 3.5 | 0.00 | 0.00 | 0.00 | 61 | 1017.0 |
| 20260507182025 | 43 | 84 | 0.9 | 4.3 | 0.00 | 0.00 | 0.00 | 62 | 1017.0 |
| 20260507181524 | 43 | 343 | 0.9 | 2.6 | 0.00 | 0.00 | 0.00 | 63 | 1017.0 |
| 20260507181025 | 43 | 13 | 0.9 | 4.3 | 0.00 | 0.00 | 0.00 | 63 | 1017.0 |
| 20260507180523 | 43 | 66 | 1.7 | 4.3 | 0.00 | 0.00 | 0.00 | 63 | 1017.2 |
| 20260507180025 | 43 | 100 | 1.7 | 5.2 | 0.00 | 0.00 | 0.00 | 64 | 1017.1 |
| 20260507175520 | 42 | 88 | 1.7 | 3.5 | 0.00 | 0.00 | 0.00 | 64 | 1017.1 |
| 20260507175020 | 42 | 108 | 1.7 | 3.5 | 0.00 | 0.00 | 0.00 | 65 | 1017.1 |
| 20260507174519 | 41 | 262 | 1.7 | 3.5 | 0.00 | 0.00 | 0.00 | 66 | 1017.2 |
| 20260507174016 | 41 | 153 | 0.9 | 5.2 | 0.00 | 0.00 | 0.00 | 68 | 1017.2 |
| 20260507173514 | 41 | 97 | 2.6 | 3.5 | 0.00 | 0.00 | 0.00 | 69 | 1017.4 |
| 20260507173014 | 40 | 76 | 0.9 | 3.5 | 0.00 | 0.00 | 0.00 | 69 | 1017.3 |
| 20260507172514 | 40 | 61 | 0.9 | 5.2 | 0.00 | 0.00 | 0.00 | 70 | 1017.3 |
| 20260507172013 | 40 | 55 | 0.9 | 4.3 | 0.00 | 0.00 | 0.00 | 71 | 1017.3 |
| 20260507171510 | 39 | 59 | 1.7 | 3.5 | 0.00 | 0.00 | 0.00 | 72 | 1017.3 |
| 20260507171009 | 39 | 36 | 0.9 | 2.6 | 0.00 | 0.00 | 0.00 | 74 | 1017.4 |
| 20260507170511 | 39 | 64 | 0.9 | 2.6 | 0.00 | 0.00 | 0.00 | 74 | 1017.3 |
| 20260507170005 | 39 | 76 | 0.9 | 2.6 | 0.00 | 0.00 | 0.00 | 73 | 1017.3 |
| 20260507165504 | 39 | 76 | 0.9 | 2.6 | 0.00 | 0.00 | 0.00 | 74 | 1017.2 |
| 20260507165103 | 38 | 76 | 0.9 | 3.5 | 0.00 | 0.00 | 0.00 | 74 | 1017.3 |
| 20260507164502 | 38 | 89 | 0.9 | 3.5 | 0.00 | 0.00 | 0.00 | 74 | 1017.4 |
| 20260507164000 | 38 | 111 | 0.9 | 3.5 | 0.00 | 0.00 | 0.00 | 75 | 1017.4 |
| 20260507163602 | 38 | 111 | 0.0 | 3.5 | 0.00 | 0.00 | 0.00 | 75 | 1017.4 |
| 20260507163101 | 38 | 42 | 0.9 | 3.5 | 0.00 | 0.00 | 0.00 | 75 | 1017.5 |
| 20260507162558 | 38 | 42 | 1.7 | 3.5 | 0.00 | 0.00 | 0.00 | 75 | 1017.5 |
| 20260507162056 | 38 | 302 | 1.7 | 5.2 | 0.00 | 0.00 | 0.00 | 77 | 1017.4 |
| 20260507161601 | 37 | 99 | 0.9 | 5.2 | 0.00 | 0.00 | 0.00 | 78 | 1017.4 |
| 20260507161054 | 36 | 62 | 0.9 | 3.5 | 0.00 | 0.00 | 0.00 | 79 | 1017.3 |
| 20260507160554 | 35 | 35 | 0.9 | 3.5 | 0.00 | 0.00 | 0.00 | 81 | 1017.2 |
| 20260507160054 | 34 | 22 | 1.7 | 3.5 | 0.00 | 0.00 | 0.00 | 82 | 1017.2 |
| 20260507155551 | 33 | 83 | 0.0 | 0.0 | 0.00 | 0.00 | 0.00 | 83 | 1017.3 |
| 20260507155050 | 33 | 83 | 0.0 | 1.7 | 0.00 | 0.00 | 0.00 | 83 | 1017.2 |
| 20260507154550 | 33 | 83 | 0.0 | 1.7 | 0.00 | 0.00 | 0.00 | 83 | 1017.3 |
| 20260507154050 | 33 | 84 | 0.0 | 1.7 | 0.00 | 0.00 | 0.00 | 83 | 1017.2 |
| 20260507153548 | 32 | 84 | 0.0 | 0.9 | 0.00 | 0.00 | 0.00 | 84 | 1017.3 |
| 20260507153058 | 32 | 84 | 0.0 | 0.9 | 0.00 | 0.00 | 0.00 | 84 | 1017.2 |
| 20260507152548 | 32 | 84 | 0.0 | 1.7 | 0.00 | 0.00 | 0.00 | 85 | 1017.1 |
| 20260507152048 | 31 | 84 | 0.0 | 1.7 | 0.00 | 0.00 | 0.00 | 86 | 1017.1 |